WA2GUG Weather Reports


Display with metric or nautical units.
time (UTC)temp
F
wind
direction
speed
MPH
gust
MPH
rain 1hr
in
rain 24hr
in
rain mn
in
humidity
%
barometer
mb
20181119214328 36 180 0.0 0.0 0.00 0.00 0.00 99 1015.0
20181119211828 36 112 0.0 99.0 0.00 0.00 0.00 99 1015.0
20181119210828 36 125 0.0 1.0 0.00 0.00 0.00 99 1015.0
20181119210328 37 163 0.0 1.0 0.00 0.00 0.00 99 1015.0
20181119205328 37 135 0.0 1.0 0.00 0.00 0.00 99 1015.0
20181119204328 37 105 0.0 99.0 0.00 0.00 0.00 99 1015.0
20181119203328 38 86 0.0 1.0 0.00 0.00 0.00 99 1015.0
20181119202328 38 98 0.0 1.0 0.00 0.00 0.00 99 1015.0
20181119201329 38 106 0.0 99.0 0.00 0.00 0.00 99 1017.0
20181119200328 39 73 0.0 0.0 0.00 0.00 0.00 99 1015.0
20181119194828 39 195 0.0 1.0 0.00 0.00 0.00 99 1015.0
20181119191328 39 127 1.0 3.0 0.00 0.00 0.00 99 1015.0
20181119185328 40 157 1.0 2.0 0.00 0.00 0.00 95 1015.0
20181119183328 41 157 1.0 2.0 0.00 0.00 0.00 99 1015.0
20181119180328 43 112 0.0 1.0 0.00 0.00 0.00 98 1016.0
20181119175328 43 217 1.0 2.0 0.00 0.00 0.00 96 1016.0
20181119174328 42 135 1.0 2.0 0.00 0.00 0.00 97 1016.0
20181119172328 43 142 0.0 2.0 0.00 0.00 0.00 97 1016.0
20181119170328 44 208 0.0 2.0 0.00 0.00 0.00 94 1016.0
20181119165328 46 101 1.0 2.0 0.00 0.00 0.00 96 1016.0
20181119161831 44 165 0.0 1.0 0.00 0.00 0.00 97 1015.1
20181119155329 44 326 1.0 2.0 0.00 0.00 0.00 98 1016.0
20181119152329 40 211 1.0 2.0 0.00 0.00 0.00 99 1017.0
20181119151328 40 345 0.0 1.0 0.00 0.00 0.00 99 1017.0
20181119144328 36 172 0.0 2.0 0.00 0.00 0.00 99 1017.0
20181119143329 36 101 1.0 2.0 0.00 0.00 0.00 99 1017.0
20181119141328 35 180 0.0 1.0 0.00 0.00 0.00 99 1017.0
20181119135328 34 61 0.0 1.0 0.00 0.00 0.00 99 1017.0
20181119134328 34 210 0.0 1.0 0.00 0.00 0.00 99 1017.0
20181119132328 34 94 0.0 0.0 0.00 0.00 0.00 99 1017.0
20181119124829 33 331 0.0 0.0 0.00 0.00 0.00 99 1017.0
20181119124328 33 288 0.0 0.0 0.00 0.00 0.00 99 1017.0
20181119123829 33 37 0.0 0.0 0.00 0.00 0.00 99 1017.0
20181119122328 33 247 0.0 1.0 0.00 0.00 0.00 99 1017.0
20181119121328 33 328 0.0 1.0 0.00 0.00 0.00 99 1017.0
20181119114828 33 33 0.0 2.0 0.00 0.00 0.00 99 1017.0
20181119113829 33 9 0.0 1.0 0.00 0.00 0.00 99 1016.0
20181119112828 33 0 0.0 1.0 0.00 0.00 0.00 99 1017.0
20181119112328 32 337 0.0 1.0 0.00 0.00 0.00 99 1016.1
20181119111828 32 210 0.0 1.0 0.00 0.00 0.00 99 1016.0
20181119111328 32 247 0.0 99.0 0.00 0.00 0.00 99 1017.0
20181119105327 32 292 0.0 0.0 0.00 0.00 0.00 99 1017.0
20181119104328 32 310 0.0 99.0 0.00 0.00 0.00 99 1017.0
20181119103827 32 300 399.0 99.0 0.00 0.00 0.00 99 1017.0
20181119101828 32 13 0.0 1.0 0.00 0.00 0.00 99 1016.0
20181119101326 32 333 0.0 1.0 0.00 0.00 0.00 99 1017.0
20181119100826 32 301 0.0 1.0 0.00 0.00 0.00 99 1017.0
20181119095828 32 337 0.0 0.0 0.00 0.00 0.00 99 1154.0
20181119094828 32 292 0.0 0.0 0.00 0.00 0.00 99 1017.0
20181119093828 32 265 0.0 0.0 0.00 0.00 0.00 99 1016.1
20181119093329 32 202 0.0 0.0 0.00 0.00 0.00 99 1017.0
20181119092828 32 326 0.0 0.0 0.00 0.00 0.00 99 1017.0
20181119092328 32 67 0.0 0.0 0.00 0.00 0.00 99 1017.0
20181119091326 32 238 0.0 0.0 0.00 0.00 0.00 99 1017.0
20181119090826 32 270 0.0 0.0 0.00 0.00 0.00 99 1017.0
20181119085826 32 292 0.0 0.0 0.00 0.00 0.00 99 1016.1
20181119082828 32 308 0.0 0.0 0.00 0.00 0.00 99 1017.0
20181119082326 32 311 0.0 1.0 0.00 0.00 0.00 99 1017.0
20181119081826 32 352 0.0 1.0 0.00 0.00 0.00 99 1159.0
20181119080828 31 307 0.0 0.0 0.00 0.00 0.00 99 1017.0
20181119075828 31 312 399.0 99.0 0.00 0.00 0.00 99 1016.1
20181119075326 31 302 0.0 0.0 0.00 0.00 0.00 99 1017.0
20181119074826 31 292 0.0 0.0 0.00 0.00 0.00 99 1017.0
20181119072826 31 292 0.0 0.0 0.00 0.00 0.00 99 1017.0
20181119070828 32 292 0.0 0.0 0.00 0.00 0.00 99 1017.0
20181119065826 32 33 0.0 0.0 0.00 0.00 0.00 99 1017.0
20181119065326 32 297 0.0 1.0 0.00 0.00 0.00 99 1017.0
20181119064826 32 337 0.0 1.0 0.00 0.00 0.00 99 1017.1
20181119064326 32 315 0.0 1.0 0.00 0.00 0.00 99 1261.0
20181119062827 32 292 0.0 99.0 0.00 0.00 0.00 99 1017.1
20181119062326 32 253 299.0 99.0 0.00 0.00 0.00 99 1018.0
20181119061827 32 292 0.0 2.0 0.00 0.00 0.00 99 1018.0
20181119061326 32 337 0.0 1.0 0.00 0.00 0.00 99 1018.0
20181119060828 32 258 0.0 0.0 0.00 0.00 0.00 99 1017.1
20181119060326 32 270 0.0 2.0 0.00 0.00 0.00 99 1018.0
20181119055327 32 315 0.0 1.0 0.00 0.00 0.00 99 1018.0
20181119054827 32 322 0.0 0.0 0.00 0.00 0.00 99 1018.0
20181119054326 32 333 0.0 1.0 0.00 0.00 0.00 99 1018.0
20181119053326 32 247 0.0 1.0 0.00 0.00 0.00 99 1018.0
20181119052826 32 82 0.0 1.0 0.00 0.00 0.00 99 1018.0
20181119052326 32 337 0.0 1.0 0.00 0.00 0.00 99 1018.0
20181119051826 32 322 0.0 1.0 0.00 0.00 0.00 99 1018.0
20181119051326 32 303 0.0 1.0 0.00 0.00 0.00 99 1018.0
20181119050327 32 292 0.0 99.0 0.00 0.00 0.00 99 1018.0
20181119045826 32 320 399.0 99.0 0.00 0.00 0.00 99 1018.0
20181119045327 32 352 0.0 1.0 0.00 0.00 0.00 99 1018.0
20181119044828 32 307 0.0 1.0 0.00 0.00 0.00 99 1017.1
20181119043326 32 348 0.0 1.0 0.00 0.00 0.00 99 1018.0
20181119042828 32 90 0.0 1.0 0.00 0.00 0.00 99 1018.0
20181119042327 32 14 0.0 1.0 0.00 0.00 0.00 99 1018.0
20181119040326 32 352 0.0 1.0 0.00 0.00 0.00 99 1018.0
20181119035826 32 31 0.0 1.0 0.00 0.00 0.00 99 1018.0
20181119035326 32 168 0.0 1.0 0.00 0.00 0.00 99 1018.0
20181119034827 32 0.0 1.0 0.00 0.00 0.00 99 1018.1
20181119034326 32 28 0.0 1.0 0.00 0.00 0.00 99 1018.0
20181119033328 32 333 0.0 2.0 0.00 0.00 0.00 99 1018.0
20181119032327 32 343 0.0 1.0 0.00 0.00 0.00 99 1019.0
20181119031826 32 292 0.0 3.0 0.00 0.00 0.00 99 1019.0
20181119031329 32 326 1.0 3.0 0.00 0.00 0.00 99 1019.0
20181119025327 32 351 0.0 1.0 0.00 0.00 0.00 99 1019.0
20181119024826 32 337 1.0 1.0 0.00 0.00 0.00 99 1018.0
20181119024326 32 318 1.0 99.0 0.00 0.00 0.00 99 1019.0
20181119022826 32 297 0.0 1.0 0.00 0.00 0.00 99 1019.0
20181119022326 32 255 0.0 1.0 0.00 0.00 0.00 99 1019.0
20181119021826 32 327 0.0 1.0 0.00 0.00 0.00 99 1019.0
20181119021326 32 310 0.0 2.0 0.00 0.00 0.00 99 1019.0
20181119015827 32 310 1.0 2.0 0.00 0.00 0.00 99 1019.0
20181119014826 32 288 1.0 2.0 0.00 0.00 0.00 99 1019.0
20181119014326 32 326 1.0 2.0 0.00 0.00 0.00 99 1019.0
20181119013826 32 292 0.0 1.0 0.00 0.00 0.00 98 1019.0
20181119012827 32 337 0.0 1.0 0.00 0.00 0.00 98 1185.0
20181119012326 32 47 0.0 1.0 0.00 0.00 0.00 98 1019.0
20181119011826 33 31 0.0 1.0 0.00 0.00 0.00 99 1019.0
20181119011326 33 343 0.0 1.0 0.00 0.00 0.00 97 1019.0
20181119005827 33 277 0.0 1.0 0.00 0.00 0.00 95 1019.0
20181119005327 33 270 0.0 0.0 0.00 0.00 0.00 98 1019.0
20181119004827 33 17 0.0 0.0 0.00 0.00 0.00 97 1019.0
20181119004327 33 12 0.0 1.0 0.00 0.00 0.00 95 1019.0
20181119002327 33 317 0.0 0.0 0.00 0.00 0.00 95 1019.0
20181119001327 33 337 0.0 0.0 0.00 0.00 0.00 95 1020.0
20181118235326 33 298 0.0 0.0 0.00 0.00 0.00 95 1020.0
20181118233827 34 322 0.0 0.0 0.00 0.00 0.00 93 1020.0
20181118233327 34 292 0.0 0.0 0.00 0.00 0.00 91 1020.0
20181118231826 34 262 0.0 1.0 0.00 0.00 0.00 95 1020.0
20181118230327 34 348 0.0 1.0 0.00 0.00 0.00 93 1019.0
20181118225827 34 322 0.0 1.0 0.00 0.00 0.00 93 1020.0
20181118225327 34 307 0.0 2.0 0.00 0.00 0.00 94 1020.0
20181118224827 34 180 0.0 3.0 0.00 0.00 0.00 93 1020.0
20181118223827 34 234 1.0 3.0 0.00 0.00 0.00 91 1020.0
20181118222827 34 30 0.0 2.0 0.00 0.00 0.00 92 1020.0
20181118221827 34 73 0.0 2.0 0.00 0.00 0.00 93 1020.0